Total_Precipitation_Accumulation
1.85 1.86 1.87 1.78 1.78 1.78 1.87 1.95 1.99 1.80 1.55 1.29 1.12 1.00 1.07 1.07 1.29 1.20 1.03 1.07 1.00 0.89 0.82 0.77 0.87 1.04 1.28 1.41 1.54 1.69 1.85 1.95 2.01 1.93 1.84 1.82 1.82 1.95
1.62 1.66 1.72 1.70 1.76 1.76 1.81 1.88 1.87 1.81 1.65 1.39 1.20 1.12 1.16 1.04 1.17 1.07 1.12 1.28 1.09 0.94 0.86 0.81 0.83 0.91 0.99 1.03 1.05 1.03 1.06 1.13 1.19 1.32 1.37 1.42 1.48 1.60
1.28 1.34 1.41 1.41 1.53 1.57 1.66 1.74 1.79 1.74 1.51 1.32 1.20 1.20 1.22 1.20 1.17 1.08 1.14 1.18 1.08 0.97 0.84 0.76 0.79 0.85 0.90 0.94 0.94 0.89 0.84 0.80 0.85 0.97 1.09 1.16 1.16 1.16
1.09 1.14 1.13 1.14 1.26 1.35 1.42 1.51 1.64 1.68 1.56 1.38 1.27 1.21 1.10 1.11 1.26 1.31 1.29 1.21 1.21 1.26 1.14 0.97 0.90 0.87 0.84 0.90 0.96 0.91 0.85 0.77 0.72 0.79 0.88 0.98 1.06 1.08
0.79 0.83 0.88 0.94 1.10 1.17 1.21 1.31 1.46 1.50 1.58 1.46 1.38 1.31 1.15 1.08 1.25 1.27 1.33 1.50 1.41 1.48 1.60 1.39 1.14 0.99 0.87 0.91 0.97 0.95 0.88 0.81 0.70 0.71 0.83 0.91 0.92 0.96
0.70 0.70 0.70 0.73 0.83 0.96 1.05 1.23 1.39 1.51 1.56 1.49 1.47 1.43 1.35 1.24 1.31 1.41 1.47 1.57 1.60 1.43 1.45 1.42 1.37 1.25 1.05 0.94 0.99 1.03 1.01 0.93 0.87 0.81 0.83 0.86 0.85 0.85
0.66 0.68 0.68 0.66 0.67 0.71 0.70 0.89 1.10 1.33 1.43 1.48 1.49 1.52 1.47 1.42 1.36 1.49 1.56 1.68 1.78 1.75 1.62 1.44 1.41 1.26 1.13 1.05 1.02 1.05 1.10 1.07 1.02 0.93 0.88 0.89 0.87 0.86
0.71 0.72 0.69 0.65 0.68 0.66 0.64 0.65 0.77 0.92 1.11 1.22 1.30 1.35 1.42 1.52 1.63 1.63 1.60 1.66 1.72 1.73 1.60 1.61 1.55 1.44 1.27 1.09 1.09 1.10 1.12 1.14 1.11 1.04 0.95 0.87 0.85 0.88
0.71 0.81 0.85 0.76 0.76 0.77 0.78 0.70 0.64 0.65 0.80 1.02 1.14 1.19 1.26 1.34 1.58 1.62 1.62 1.66 1.58 1.61 1.46 1.51 1.47 1.34 1.25 1.21 1.21 1.14 1.14 1.11 1.11 1.07 1.03 0.96 0.89 0.91
0.62 0.74 0.98 1.00 0.88 0.83 0.85 0.92 0.83 0.68 0.68 0.74 0.92 1.06 1.10 1.25 1.57 1.79 1.74 1.53 1.48 1.54 1.44 1.44 1.38 1.25 1.17 1.15 1.21 1.12 1.10 1.06 1.03 1.03 1.00 0.97 0.92 0.93
0.53 0.65 0.80 0.93 0.87 0.83 0.81 0.87 0.91 0.80 0.74 0.76 0.73 0.81 0.94 1.12 1.37 1.62 1.74 1.69 1.53 1.48 1.36 1.29 1.29 1.27 1.28 1.24 1.19 1.17 1.09 1.08 1.07 1.06 1.08 1.06 1.02 1.08
0.40 0.56 0.74 0.72 0.66 0.71 0.79 0.89 0.99 0.83 0.74 0.82 0.81 0.83 0.86 1.04 1.38 1.58 1.71 1.71 1.58 1.53 1.42 1.33 1.32 1.32 1.49 1.44 1.26 1.20 1.14 1.16 1.17 1.15 1.13 1.16 1.21 1.18
0.35 0.50 0.55 0.51 0.50 0.58 0.67 0.77 0.92 0.79 0.80 0.94 0.97 0.95 1.02 1.06 1.18 1.32 1.54 1.66 1.59 1.43 1.35 1.45 1.51 1.43 1.41 1.41 1.37 1.27 1.19 1.11 1.10 1.12 1.14 1.15 1.20 1.17
0.38 0.43 0.43 0.40 0.42 0.46 0.48 0.58 0.70 0.78 0.86 0.99 1.06 1.03 0.99 1.04 1.10 1.13 1.24 1.35 1.35 1.30 1.21 1.18 1.28 1.27 1.21 1.10 1.09 1.16 1.17 1.13 1.09 1.09 1.11 1.22 1.20 1.21
0.36 0.41 0.42 0.44 0.45 0.44 0.44 0.51 0.65 0.82 0.99 1.00 0.93 0.90 0.93 0.98 0.99 1.10 1.18 1.21 1.23 1.23 1.13 0.98 0.98 1.05 1.05 0.99 0.90 0.92 1.03 1.08 1.04 1.00 1.01 1.05 1.07 1.11
0.40 0.43 0.44 0.47 0.47 0.43 0.49 0.60 0.74 0.92 1.01 0.94 0.89 0.77 0.77 0.89 0.94 0.96 1.00 1.02 1.07 1.11 1.03 0.97 0.94 0.94 0.95 0.92 0.87 0.84 0.84 0.90 0.95 0.97 0.97 0.95 0.94 0.97
0.39 0.45 0.49 0.55 0.59 0.63 0.71 0.78 0.79 0.82 0.87 0.80 0.84 0.77 0.70 0.76 0.80 0.81 0.83 0.79 0.80 0.80 0.83 0.85 0.88 0.86 0.84 0.86 0.88 0.83 0.83 0.80 0.80 0.90 0.97 0.96 0.90 0.90
0.44 0.48 0.56 0.65 0.71 0.78 0.82 0.80 0.78 0.78 0.80 0.77 0.76 0.74 0.67 0.67 0.68 0.69 0.73 0.77 0.80 0.76 0.69 0.67 0.69 0.75 0.79 0.85 0.84 0.78 0.80 0.83 0.84 0.86 0.87 0.86 0.80 0.78
0.41 0.50 0.69 0.74 0.73 0.77 0.81 0.79 0.68 0.62 0.62 0.63 0.62 0.59 0.57 0.57 0.60 0.62 0.64 0.70 0.72 0.68 0.67 0.68 0.69 0.73 0.75 0.68 0.63 0.62 0.71 0.76 0.78 0.81 0.83 0.81 0.76 0.73
0.33 0.41 0.55 0.60 0.64 0.70 0.69 0.66 0.58 0.51 0.51 0.49 0.47 0.48 0.50 0.52 0.52 0.55 0.56 0.57 0.62 0.62 0.60 0.61 0.63 0.67 0.72 0.73 0.66 0.56 0.57 0.65 0.68 0.72 0.74 0.78 0.80 0.91
0.35 0.41 0.46 0.51 0.54 0.54 0.53 0.52 0.50 0.50 0.50 0.49 0.48 0.48 0.49 0.50 0.49 0.47 0.51 0.55 0.56 0.54 0.56 0.56 0.57 0.69 0.73 0.78 0.75 0.59 0.51 0.60 0.66 0.65 0.71 0.80 0.80 0.74
0.34 0.35 0.38 0.41 0.43 0.45 0.47 0.47 0.47 0.49 0.50 0.49 0.48 0.49 0.52 0.53 0.51 0.49 0.48 0.50 0.52 0.55 0.55 0.56 0.58 0.62 0.68 0.74 0.69 0.60 0.57 0.58 0.65 0.76 0.76 0.75 0.72 0.67
0.35 0.34 0.34 0.38 0.42 0.45 0.50 0.51 0.49 0.50 0.51 0.51 0.52 0.53 0.55 0.57 0.56 0.55 0.53 0.52 0.52 0.55 0.57 0.59 0.60 0.64 0.66 0.69 0.70 0.67 0.65 0.64 0.65 0.67 0.67 0.73 0.71 0.66